Regional Weather Roundup
Issued by NWS

Home | Current Version | Previous Version | Graphics & Text | Print | Product List | Glossary On
Versions: 1 2 3 4 5 6 7 8 9 10 11 12 13 14 15 16 17 18 19 20 21 22 23 24 25 26 27 28 29 30 31 32 33 34 35 36 37 38 39 40 41 42 43 44 45 46 47 48 49 50
000
ASUS43 KLSX 052359
RWRMO

WEATHER SUMMARY FOR MISSOURI
NATIONAL WEATHER SERVICE SPRINGFIELD MO
700 PM CDT SUN JUL 05 2015

NOTE: "FAIR" INDICATES FEW OR NO CLOUDS BELOW 12,000 FEET WITH NO
       SIGNIFICANT WEATHER AND/OR OBSTRUCTIONS TO VISIBILITY.
       CURRENT SKY AND/OR WEATHER CONDITIONS ARE NOT AVAILABLE FOR
       CHILLICOTHE AND FARMINGTON.

MOZ001>031-035>038-043-044-053-054-060100-
...NORTHERN AND WESTERN MISSOURI...

CITY           SKY/WX    TMP DP  RH WIND       PRES   REMARKS
KANSAS CTY INT PTSUNNY   86  75  69 SE15      29.89F HX  95
6HR MIN TEMP:  83; 6HR MAX TEMP:  88;

KANSAS C DTWN  SUNNY     88  75  65 S9        29.88F HX  97
6HR MIN TEMP:  87; 6HR MAX TEMP:  90;

LEE`S SUMMIT   SUNNY     87  73  62 S14G21    29.91F HX  94
6HR MIN TEMP:  84; 6HR MAX TEMP:  88;

ST JOSEPH      MOSUNNY   87  74  64 SE15      29.86F HX  95
6HR MIN TEMP:  85; 6HR MAX TEMP:  90;

CHILLICOTHE      N/A     87  73  62 SE9       29.92S HX  94
6HR MIN TEMP:  85; 6HR MAX TEMP:  89;

KIRKSVILLE     SUNNY     83  67  58 S9        29.96F
6HR MIN TEMP:  82; 6HR MAX TEMP:  86;


$$
MOZ066>068-077>081-088>096-101>105-060100-
...SOUTHWEST MISSOURI...

CITY           SKY/WX    TMP DP  RH WIND       PRES   REMARKS
SPRINGFIELD    CLOUDY    73  68  84 SE12      29.99F
6HR MIN TEMP:  69; 6HR MAX TEMP:  88; 6HR PCP:  1.66;

JOPLIN         LGT RAIN  83  65  54 SE20G26   29.95R
6HR MIN TEMP:  83; 6HR MAX TEMP:  91; 6HR PCP: TRACE;


$$
MOZ032>034-039>042-045>050-055>058-069>072-060100-
...CENTRAL MISSOURI...

CITY           SKY/WX    TMP DP  RH WIND       PRES   REMARKS
COLUMBIA       MOSUNNY   84  71  65 SE8       29.97F
6HR MIN TEMP:  82; 6HR MAX TEMP:  86;

JEFFERSON CITY MOSUNNY   85  70  60 SE7       29.95F
6HR MIN TEMP:  81; 6HR MAX TEMP:  86;

ROLLA          MOSUNNY   82  71  69 S6        29.99S
6HR MIN TEMP:  80; 6HR MAX TEMP:  85;

SEDALIA        SUNNY     85  74  69 SE10      29.96S HX  92
6HR MIN TEMP:  84; 6HR MAX TEMP:  89;

OSAGE BEACH    SUNNY     84  72  65 S7        29.99R

$$
MOZ051-052-059>065-060100-
...EAST CENTRAL MISSOURI...

CITY           SKY/WX    TMP DP  RH WIND       PRES   REMARKS
ST LOUIS INTL  PTSUNNY   85  65  51 S6        30.00S
6HR MIN TEMP:  85; 6HR MAX TEMP:  89;

SPIRIT OF STL  MOSUNNY   82  70  66 SE3       29.98S
6HR MIN TEMP:  82; 6HR MAX TEMP:  87;

ST CHARLES     SUNNY     81  69  67 S6        29.98S
6HR MIN TEMP:  81; 6HR MAX TEMP:  86;


$$
MOZ072>076-082>087-097>100-106>115-060100-
...SOUTH CENTRAL AND SOUTHEAST MISSOURI...

CITY           SKY/WX    TMP DP  RH WIND       PRES   REMARKS
CAPE GIRARDEAU SUNNY     82  68  62 SE5       30.01S
6HR MIN TEMP:  80; 6HR MAX TEMP:  85;

FARMINGTON     SUNNY     79  70  73 S7        30.05F
6HR MIN TEMP:  79; 6HR MAX TEMP:  84;

POPLAR BLUFF   SUNNY     83  72  69 S5        29.99S
6HR MIN TEMP:  81; 6HR MAX TEMP:  85;

WEST PLAINS    PTSUNNY   81  71  71 S7        30.04R
6HR MIN TEMP:  79; 6HR MAX TEMP:  84;


$$


USA.gov is the U.S. government's official web portal to all federal, state and local government web resources and services.